Location: Unspecified
(41.5516°N, 88.1098°W)
Time: 15:40:30
(UTC-05:00)

Cosmos 2058 - Visible Passes

Search period start: 23 May 2017 00:00
Search period end: 02 June 2017 00:00
Orbit: 563 x 586 km, 82.5° (Epoch: 22 May)

Date Brightness Start Highest point End Pass type
(mag) Time Alt. Az. Time Alt. Az. Time Alt. Az.
23 May 5.2 02:14:39 14° ESE 02:15:56 15° E 02:18:23 10° NE visible
23 May 3.6 03:50:53 26° SW 03:52:31 38° WNW 03:56:23 10° N visible
24 May 4.9 02:18:11 19° ESE 02:19:13 20° E 02:22:17 10° NE visible
24 May 4.0 03:54:25 22° WSW 03:55:57 28° WNW 03:59:33 10° NNW visible
25 May 4.4 02:21:42 25° ESE 02:22:30 27° E 02:26:00 10° NNE visible
25 May 4.4 03:57:56 18° WSW 03:59:25 22° WNW 04:02:39 10° NNW visible
26 May 3.9 02:25:12 34° ESE 02:25:49 36° E 02:29:36 10° NNE visible
26 May 4.7 04:01:26 14° W 04:02:53 17° WNW 04:05:36 10° NNW visible
27 May 3.4 02:28:41 46° ESE 02:29:08 49° E 02:33:07 10° NNE visible
27 May 5.0 04:04:55 11° W 04:06:23 13° WNW 04:08:18 10° NW visible
28 May 2.9 02:32:09 64° SE 02:32:28 68° E 02:36:35 10° NNE visible
29 May 2.7 02:35:36 79° SSW 02:35:50 88° W 02:39:59 10° N visible
30 May 2.9 02:39:02 64° W 02:39:12 65° W 02:43:19 10° N visible
31 May 5.4 01:06:14 13° E 01:06:14 13° E 01:07:58 10° ENE visible
31 May 3.3 02:42:27 47° W 02:42:36 47° WNW 02:46:37 10° N visible
01 Jun 5.1 01:09:38 17° E 01:09:38 17° E 01:12:05 10° NE visible
01 Jun 3.7 02:45:52 35° W 02:46:02 35° WNW 02:49:51 10° N visible
